Location: Unspecified
(48.4330°N, 0.0000°E)
Time: 04:13:30
(UTC+00:00)

KAZEOSAT 1 - Visible Passes

Search period start: 04 April 2026 00:00
Search period end: 14 April 2026 00:00
Orbit: 751 x 753 km, 98.3° (Epoch: 29 March)

Date Brightness Start Highest point End Pass type
(mag) Time Alt. Az. Time Alt. Az. Time Alt. Az.
4 Apr ? 19:55:05 11° ENE 19:56:47 13° NE 19:58:56 10° NNE visible
4 Apr ? 21:34:59 70° NE 21:34:59 70° NE 21:39:40 10° N visible
4 Apr ? 23:14:54 16° WNW 23:14:54 16° WNW 23:17:05 10° NW visible
5 Apr ? 20:53:43 33° ENE 20:54:09 34° ENE 20:58:39 10° N visible
5 Apr ? 22:33:38 34° WNW 22:33:38 34° WNW 22:37:28 10° NNW visible
6 Apr ? 20:12:26 15° ENE 20:13:52 17° ENE 20:17:04 10° NNE visible
6 Apr ? 21:52:21 75° NW 21:52:21 75° NW 21:57:03 10° NNW visible
6 Apr ? 23:32:16 11° WNW 23:32:16 11° WNW 23:33:08 10° WNW visible
7 Apr ? 21:11:05 46° E 21:11:24 47° ENE 21:16:12 10° N visible
7 Apr ? 22:51:00 25° W 22:51:00 25° W 22:54:31 10° NW visible
8 Apr ? 20:29:48 21° E 20:31:01 23° ENE 20:34:54 10° N visible
8 Apr ? 22:09:43 56° W 22:09:43 56° W 22:14:21 10° NNW visible
9 Apr ? 19:49:16 10° ENE 19:50:53 12° NE 19:52:32 10° NNE visible
9 Apr ? 21:28:27 64° E 21:28:41 65° ENE 21:33:40 10° N visible
9 Apr ? 23:08:22 18° W 23:08:22 18° W 23:11:21 10° NW visible
10 Apr ? 20:47:11 28° E 20:48:13 31° ENE 20:52:35 10° N visible
10 Apr ? 22:27:06 40° W 22:27:06 40° W 22:31:34 10° NNW visible
11 Apr ? 20:05:54 12° E 20:07:59 16° NE 20:10:53 10° NNE visible
11 Apr ? 21:45:49 83° S 21:46:01 89° WSW 21:51:04 10° NNW visible
11 Apr ? 23:25:44 13° W 23:25:44 13° W 23:27:45 10° WNW visible
12 Apr ? 21:04:33 38° E 21:05:27 42° ENE 21:10:10 10° N visible
12 Apr ? 22:44:28 29° W 22:44:28 29° W 22:48:39 10° NW visible
13 Apr ? 20:23:17 17° E 20:25:06 21° ENE 20:28:47 10° NNE visible
13 Apr ? 22:03:12 64° WSW 22:03:23 64° WSW 22:08:24 10° NNW visible
